FW0984 Weather Reports


Display with metric or nautical units.
time (UTC)temp
F
wind
direction
speed
MPH
gust
MPH
rain 1hr
in
rain 24hr
in
rain mn
in
humidity
%
barometer
mb
20260903144506 87 62 0.0 0.0 0.00 0.00 0.00 75 1016.9
20260903143003 86 240 0.0 0.0 0.00 0.00 0.00 83 1016.9
20260903141549 79 154 0.0 0.0 0.00 0.00 0.00 88 1016.9
20260903140044 78 154 0.0 0.0 0.00 0.00 0.00 90 1017.0
20260903134539 76 154 0.0 0.0 0.00 0.00 0.00 93 1017.1
20260903133046 75 154 0.0 0.0 0.00 0.00 0.00 94 1017.2
20260903131532 74 154 0.0 0.0 0.00 0.00 0.00 94 1017.4
20260903130133 74 154 0.0 0.0 0.00 0.00 0.00 94 1017.4
20260903124530 74 154 0.0 0.0 0.00 0.00 0.00 95 1017.5
20260903123030 74 154 0.0 0.0 0.00 0.00 0.00 95 1017.6
20260903121528 73 154 0.0 0.0 0.00 0.00 0.00 96 1017.7
20260903120028 72 154 0.0 0.0 0.00 0.00 0.00 96 1017.6
20260903114523 71 154 0.0 0.0 0.00 0.00 0.00 96 1017.6
20260903113019 71 154 0.0 0.0 0.00 0.00 0.00 96 1017.5
20260903111522 71 154 0.0 0.0 0.00 0.00 0.00 96 1017.3
20260903110014 71 154 0.0 0.0 0.00 0.00 0.00 96 1017.1
20260903104514 71 154 0.0 0.0 0.00 0.00 0.00 96 1017.0
20260903103110 71 154 0.0 0.0 0.00 0.00 0.00 96 1016.8
20260903101507 71 154 0.0 0.0 0.00 0.00 0.00 96 1016.8
20260903100007 72 151 0.0 0.0 0.00 0.00 0.00 95 1016.8
20260903094505 72 151 0.0 0.0 0.00 0.00 0.00 95 1016.7
20260903093004 72 151 0.0 0.0 0.00 0.00 0.00 95 1016.7
20260903091503 72 151 0.0 0.0 0.00 0.00 0.00 95 1016.8
20260903090002 72 151 0.0 0.0 0.00 0.00 0.00 95 1016.8
20260903084501 72 151 0.0 0.0 0.00 0.00 0.00 95 1016.7
20260903083100 73 151 0.0 0.0 0.00 0.00 0.00 94 1016.6
20260903081602 73 151 0.0 0.0 0.00 0.00 0.00 94 1016.6
20260903080057 73 151 0.0 0.0 0.00 0.00 0.00 94 1016.6
20260903074603 73 151 0.0 0.0 0.00 0.00 0.00 94 1016.6
20260903073101 73 151 0.0 0.0 0.00 0.00 0.00 94 1016.5
20260903071603 73 151 0.0 0.0 0.00 0.00 0.00 94 1016.4
20260903070055 73 151 0.0 0.0 0.00 0.00 0.00 93 1016.4
20260903064556 73 151 0.0 0.0 0.00 0.00 0.00 94 1016.5
20260903063056 73 151 0.0 0.0 0.00 0.00 0.00 94 1016.5
20260903061601 73 151 0.0 0.0 0.00 0.00 0.00 94 1016.5
20260903023052 76 151 0.0 0.0 0.00 0.00 0.00 90 1016.4
20260903021552 76 151 0.0 0.0 0.00 0.00 0.00 89 1016.5
20260903020051 77 151 0.0 0.0 0.00 0.00 0.00 89 1016.4
20260903014559 77 151 0.0 0.0 0.00 0.00 0.00 88 1016.4
20260903013050 78 151 0.0 0.0 0.00 0.00 0.00 86 1016.3
20260903011605 78 189 0.0 0.0 0.00 0.00 0.00 86 1016.1
20260903004548 80 279 0.0 0.0 0.00 0.00 0.00 83 1015.8
20260903003048 81 279 0.0 0.0 0.00 0.00 0.00 79 1015.7
20260902193016 91 138 0.0 0.0 0.00 0.00 0.00 52 1016.7
20260902191504 91 264 0.0 0.0 0.00 0.00 0.00 57 1016.9
20260902190005 91 327 0.0 0.0 0.00 0.00 0.00 61 1017.0
20260902184501 91 68 0.0 0.0 0.00 0.00 0.00 59 1017.2
20260902183001 92 315 0.0 0.0 0.00 0.00 0.00 59 1017.3
20260902181612 92 297 0.0 0.0 0.00 0.00 0.00 56 1017.3
20260902180103 91 70 0.0 0.0 0.00 0.00 0.00 57 1017.5
20260902174558 92 278 0.0 0.0 0.00 0.00 0.00 57 1017.6
20260902173108 92 321 0.0 0.0 0.00 0.00 0.00 57 1017.8
20260902171556 92 294 0.0 0.0 0.00 0.00 0.00 61 1017.8
20260902170052 91 278 0.0 0.0 0.00 0.00 0.00 60 1018.0
20260902164547 91 295 0.0 0.0 0.00 0.00 0.00 58 1018.1
20260902163053 91 263 0.0 0.0 0.00 0.00 0.00 63 1018.2
20260902161541 90 289 0.0 0.0 0.00 0.00 0.00 64 1018.2
20260902160038 89 302 0.0 0.0 0.00 0.00 0.00 67 1018.4
20260902154534 89 328 0.0 0.0 0.00 0.00 0.00 68 1018.5
20260902153044 89 271 0.0 0.0 0.00 0.00 0.00 72 1018.6
20260902151528 88 197 0.0 0.0 0.00 0.00 0.00 68 1018.7
20260902150024 87 213 0.0 0.0 0.00 0.00 0.00 74 1018.8